Time,TemperatureF,DewpointF,PressureIn,WindDirection,WindDirectionDegrees,WindSpeedMPH,WindSpeedGustMPH,Humidity,HourlyPrecipIn,Conditions,Clouds,dailyrainin,SoftwareType,DateUTC
2013-03-15 00:03:00,27.0,18.0,30.04,WSW,240,5.0,11.0,68,0.00,,,0.00,,2013-03-15 04:03:00,
2013-03-15 00:12:00,27.0,18.0,30.04,WSW,240,5.0,11.0,68,0.00,,,0.00,,2013-03-15 04:12:00,
2013-03-15 00:23:00,27.0,18.0,30.04,North,0,0.0,11.0,69,0.00,,,0.00,,2013-03-15 04:23:00,
2013-03-15 00:33:00,27.0,18.0,30.04,North,0,0.0,11.0,69,0.00,,,0.00,,2013-03-15 04:33:00,
2013-03-15 00:43:00,27.0,18.0,30.04,North,0,0.0,11.0,69,0.00,,,0.00,,2013-03-15 04:43:00,
2013-03-15 00:52:00,27.0,18.0,30.04,North,0,0.0,11.0,69,0.00,,,0.00,,2013-03-15 04:52:00,
2013-03-15 01:02:00,26.0,18.0,30.04,WSW,251,2.0,10.0,70,0.00,,,0.00,,2013-03-15 05:02:00,
2013-03-15 01:12:00,26.0,18.0,30.04,WSW,251,2.0,10.0,70,0.00,,,0.00,,2013-03-15 05:12:00,
2013-03-15 01:23:00,26.0,18.0,30.03,WSW,248,5.0,9.0,71,0.00,,,0.00,,2013-03-15 05:23:00,
2013-03-15 01:32:00,26.0,18.0,30.02,WSW,251,6.0,11.0,72,0.00,,,0.00,,2013-03-15 05:32:00,
2013-03-15 01:42:00,26.0,18.0,30.02,WSW,251,6.0,11.0,72,0.00,,,0.00,,2013-03-15 05:42:00,
2013-03-15 01:52:00,26.0,19.0,30.01,WSW,249,4.0,10.0,73,0.00,,,0.00,,2013-03-15 05:52:00,
2013-03-15 02:02:00,26.0,19.0,30.01,WSW,252,3.0,9.0,73,0.00,,,0.00,,2013-03-15 06:02:00,
2013-03-15 02:12:00,26.0,19.0,30.01,WSW,252,3.0,9.0,73,0.00,,,0.00,,2013-03-15 06:12:00,
2013-03-15 02:22:00,25.0,18.0,30.01,WSW,246,3.0,8.0,74,0.00,,,0.00,,2013-03-15 06:22:00,
2013-03-15 02:32:00,25.0,18.0,30.01,WSW,245,2.0,7.0,75,0.00,,,0.00,,2013-03-15 06:32:00,
2013-03-15 02:42:00,25.0,18.0,30.01,WSW,245,2.0,7.0,75,0.00,,,0.00,,2013-03-15 06:42:00,
2013-03-15 02:53:00,25.0,19.0,30.01,WSW,244,2.0,5.0,76,0.00,,,0.00,,2013-03-15 06:53:00,
2013-03-15 03:02:00,25.0,19.0,30.01,WSW,255,2.0,8.0,76,0.00,,,0.00,,2013-03-15 07:02:00,
2013-03-15 03:12:00,25.0,19.0,30.01,WSW,255,2.0,8.0,76,0.00,,,0.00,,2013-03-15 07:12:00,
2013-03-15 03:22:00,25.0,19.0,30.01,SW,234,1.0,6.0,76,0.00,,,0.00,,2013-03-15 07:22:00,
2013-03-15 03:32:00,24.0,18.0,30.00,WSW,238,3.0,7.0,77,0.00,,,0.00,,2013-03-15 07:32:00,
2013-03-15 03:42:00,24.0,18.0,30.00,WSW,238,3.0,7.0,77,0.00,,,0.00,,2013-03-15 07:42:00,
2013-03-15 03:52:00,24.0,18.0,29.99,WSW,241,2.0,8.0,77,0.00,,,0.00,,2013-03-15 07:52:00,
2013-03-15 04:02:00,24.0,18.0,29.98,SW,221,1.0,7.0,77,0.00,,,0.00,,2013-03-15 08:02:00,
2013-03-15 04:12:00,24.0,18.0,29.98,SW,221,1.0,7.0,77,0.00,,,0.00,,2013-03-15 08:12:00,
2013-03-15 04:23:00,24.0,18.0,29.98,SW,230,2.0,5.0,77,0.00,,,0.00,,2013-03-15 08:23:00,
2013-03-15 04:33:00,24.0,18.0,29.98,SW,229,3.0,8.0,77,0.00,,,0.00,,2013-03-15 08:33:00,
2013-03-15 04:42:00,24.0,18.0,29.98,SW,229,3.0,8.0,77,0.00,,,0.00,,2013-03-15 08:42:00,
2013-03-15 04:52:00,24.0,18.0,29.98,SW,233,3.0,9.0,77,0.00,,,0.00,,2013-03-15 08:52:00,
2013-03-15 05:02:00,25.0,19.0,29.96,WSW,239,3.0,7.0,77,0.00,,,0.00,,2013-03-15 09:02:00,
2013-03-15 05:12:00,25.0,19.0,29.96,WSW,239,3.0,7.0,77,0.00,,,0.00,,2013-03-15 09:12:00,
2013-03-15 05:22:00,25.0,19.0,29.96,SW,221,2.0,6.0,77,0.00,,,0.00,,2013-03-15 09:22:00,
2013-03-15 05:33:00,25.0,18.0,29.96,SW,216,2.0,9.0,75,0.00,,,0.00,,2013-03-15 09:33:00,
2013-03-15 05:43:00,25.0,18.0,29.96,SW,216,2.0,9.0,75,0.00,,,0.00,,2013-03-15 09:43:00,
2013-03-15 05:52:00,25.0,18.0,29.96,SW,216,2.0,9.0,75,0.00,,,0.00,,2013-03-15 09:52:00,
2013-03-15 06:03:00,25.0,18.0,29.96,SW,218,3.0,7.0,74,0.00,,,0.00,,2013-03-15 10:03:00,
2013-03-15 06:13:00,25.0,18.0,29.96,SW,218,3.0,7.0,74,0.00,,,0.00,,2013-03-15 10:13:00,
2013-03-15 06:23:00,25.0,18.0,29.96,SW,218,3.0,7.0,74,0.00,,,0.00,,2013-03-15 10:23:00,
2013-03-15 06:33:00,25.0,18.0,29.95,SSW,208,2.0,7.0,74,0.00,,,0.00,,2013-03-15 10:33:00,
2013-03-15 06:42:00,25.0,18.0,29.95,SSW,208,2.0,7.0,74,0.00,,,0.00,,2013-03-15 10:42:00,
2013-03-15 06:52:00,25.0,18.0,29.95,SSW,208,2.0,7.0,74,0.00,,,0.00,,2013-03-15 10:52:00,
2013-03-15 07:03:00,25.0,18.0,29.95,SSW,212,2.0,7.0,73,0.00,,,0.00,,2013-03-15 11:03:00,
2013-03-15 07:12:00,25.0,18.0,29.95,SSW,212,2.0,7.0,73,0.00,,,0.00,,2013-03-15 11:12:00,
2013-03-15 07:23:00,26.0,18.0,29.94,SW,224,3.0,12.0,72,0.00,,,0.00,,2013-03-15 11:23:00,
2013-03-15 07:32:00,26.0,18.0,29.94,SW,232,4.0,11.0,71,0.00,,,0.00,,2013-03-15 11:32:00,
2013-03-15 07:42:00,26.0,18.0,29.94,SW,232,4.0,11.0,71,0.00,,,0.00,,2013-03-15 11:42:00,
2013-03-15 07:52:00,26.0,18.0,29.94,SW,235,5.0,11.0,70,0.00,,,0.00,,2013-03-15 11:52:00,
2013-03-15 08:02:00,26.0,18.0,29.93,SW,226,1.0,6.0,71,0.00,,,0.00,,2013-03-15 12:02:00,
2013-03-15 08:12:00,27.0,19.0,29.93,SW,225,2.0,6.0,70,0.00,,,0.00,,2013-03-15 12:12:00,
2013-03-15 08:23:00,27.0,19.0,29.93,SW,225,2.0,6.0,70,0.00,,,0.00,,2013-03-15 12:23:00,
2013-03-15 08:32:00,27.0,18.0,29.93,SW,224,4.0,9.0,68,0.00,,,0.00,,2013-03-15 12:32:00,
2013-03-15 08:42:00,27.0,18.0,29.93,SW,224,4.0,9.0,68,0.00,,,0.00,,2013-03-15 12:42:00,
2013-03-15 08:52:00,28.0,18.0,29.93,SW,217,5.0,9.0,66,0.00,,,0.00,,2013-03-15 12:52:00,
2013-03-15 09:02:00,29.0,18.0,29.93,SW,227,8.0,15.0,64,0.00,,,0.00,,2013-03-15 13:02:00,
2013-03-15 09:12:00,29.0,18.0,29.93,SW,227,8.0,15.0,64,0.00,,,0.00,,2013-03-15 13:12:00,
2013-03-15 09:22:00,29.0,18.0,29.93,WSW,237,7.0,15.0,64,0.00,,,0.00,,2013-03-15 13:22:00,
2013-03-15 09:32:00,29.0,18.0,29.92,SW,236,5.0,14.0,63,0.00,,,0.00,,2013-03-15 13:32:00,
2013-03-15 09:42:00,29.0,18.0,29.92,SW,236,5.0,14.0,63,0.00,,,0.00,,2013-03-15 13:42:00,
2013-03-15 09:52:00,29.0,18.0,29.92,SW,236,5.0,14.0,63,0.00,,,0.00,,2013-03-15 13:52:00,
2013-03-15 10:02:00,30.0,18.0,29.91,WSW,237,7.0,15.0,61,0.00,,,0.00,,2013-03-15 14:02:00,
2013-03-15 10:12:00,30.0,18.0,29.91,WSW,237,7.0,15.0,61,0.00,,,0.00,,2013-03-15 14:12:00,
2013-03-15 10:22:00,30.0,18.0,29.90,SW,231,8.0,17.0,61,0.00,,,0.00,,2013-03-15 14:22:00,
2013-03-15 10:33:00,31.0,19.0,29.89,SW,225,5.0,16.0,60,0.00,,,0.00,,2013-03-15 14:33:00,
2013-03-15 10:42:00,31.0,19.0,29.89,SW,225,5.0,16.0,60,0.00,,,0.00,,2013-03-15 14:42:00,
2013-03-15 10:53:00,31.0,19.0,29.90,WSW,239,8.0,16.0,60,0.00,,,0.00,,2013-03-15 14:53:00,
2013-03-15 11:02:00,32.0,19.0,29.89,WSW,240,17.0,30.0,58,0.00,,,0.00,,2013-03-15 15:02:00,
2013-03-15 11:13:00,32.0,19.0,29.89,WSW,240,17.0,30.0,58,0.00,,,0.00,,2013-03-15 15:13:00,
2013-03-15 11:23:00,33.0,20.0,29.88,WSW,243,16.0,21.0,59,0.00,,,0.00,,2013-03-15 15:23:00,
2013-03-15 11:33:00,34.0,21.0,29.87,WSW,245,9.0,22.0,59,0.00,,,0.00,,2013-03-15 15:33:00,
2013-03-15 11:42:00,36.0,23.0,29.87,SW,225,8.0,14.0,58,0.00,,,0.00,,2013-03-15 15:42:00,
2013-03-15 11:53:00,36.0,23.0,29.87,SW,225,8.0,14.0,58,0.00,,,0.00,,2013-03-15 15:53:00,
2013-03-15 12:03:00,36.0,23.0,29.87,WSW,244,9.0,19.0,60,0.00,,,0.00,,2013-03-15 16:03:00,
2013-03-15 12:12:00,36.0,24.0,29.86,SW,230,12.0,20.0,62,0.00,,,0.00,,2013-03-15 16:12:00,
2013-03-15 12:23:00,36.0,24.0,29.86,SW,230,12.0,20.0,62,0.00,,,0.00,,2013-03-15 16:23:00,
2013-03-15 12:32:00,36.0,25.0,29.85,WSW,245,10.0,24.0,64,0.00,,,0.00,,2013-03-15 16:32:00,
2013-03-15 12:42:00,36.0,25.0,29.85,WSW,245,10.0,24.0,64,0.00,,,0.00,,2013-03-15 16:42:00,
2013-03-15 12:52:00,36.0,25.0,29.85,WSW,245,10.0,24.0,64,0.00,,,0.00,,2013-03-15 16:52:00,
2013-03-15 13:02:00,36.0,26.0,29.85,SW,230,11.0,23.0,68,0.00,,,0.00,,2013-03-15 17:02:00,
2013-03-15 13:12:00,36.0,26.0,29.85,SW,230,11.0,23.0,68,0.00,,,0.00,,2013-03-15 17:12:00,
2013-03-15 13:22:00,36.0,27.0,29.84,SW,235,9.0,22.0,70,0.00,,,0.00,,2013-03-15 17:22:00,
2013-03-15 13:32:00,37.0,28.0,29.86,WSW,237,13.0,24.0,71,0.00,,,0.00,,2013-03-15 17:32:00,
2013-03-15 13:42:00,37.0,28.0,29.86,WSW,237,13.0,24.0,71,0.00,,,0.00,,2013-03-15 17:42:00,
2013-03-15 13:53:00,37.0,29.0,29.84,SW,233,12.0,23.0,72,0.00,,,0.00,,2013-03-15 17:53:00,
2013-03-15 14:02:00,38.0,29.0,29.84,SW,236,10.0,22.0,71,0.00,,,0.00,,2013-03-15 18:02:00,
2013-03-15 14:12:00,38.0,29.0,29.84,SW,236,10.0,22.0,71,0.00,,,0.00,,2013-03-15 18:12:00,
2013-03-15 14:22:00,39.0,30.0,29.83,SW,233,8.0,26.0,69,0.00,,,0.00,,2013-03-15 18:22:00,
2013-03-15 14:32:00,39.0,29.0,29.82,SW,223,15.0,25.0,68,0.00,,,0.00,,2013-03-15 18:32:00,
2013-03-15 14:42:00,39.0,29.0,29.82,SW,223,15.0,25.0,68,0.00,,,0.00,,2013-03-15 18:42:00,
2013-03-15 14:52:00,40.0,30.0,29.81,SW,235,12.0,22.0,68,0.00,,,0.00,,2013-03-15 18:52:00,
2013-03-15 15:02:00,40.0,30.0,29.81,SW,235,13.0,28.0,68,0.00,,,0.00,,2013-03-15 19:02:00,
2013-03-15 15:12:00,40.0,30.0,29.81,SW,235,13.0,28.0,68,0.00,,,0.00,,2013-03-15 19:12:00,
2013-03-15 15:23:00,40.0,30.0,29.80,WSW,244,15.0,29.0,67,0.00,,,0.00,,2013-03-15 19:23:00,
2013-03-15 15:32:00,41.0,31.0,29.80,WSW,247,11.0,23.0,67,0.00,,,0.00,,2013-03-15 19:32:00,
2013-03-15 15:42:00,41.0,31.0,29.80,WSW,247,11.0,23.0,67,0.00,,,0.00,,2013-03-15 19:42:00,
2013-03-15 15:52:00,41.0,31.0,29.79,SW,236,6.0,23.0,67,0.00,,,0.00,,2013-03-15 19:52:00,
2013-03-15 16:02:00,42.0,31.0,29.79,WSW,252,10.0,19.0,64,0.00,,,0.00,,2013-03-15 20:02:00,
2013-03-15 16:12:00,42.0,31.0,29.79,WSW,252,10.0,19.0,64,0.00,,,0.00,,2013-03-15 20:12:00,
2013-03-15 16:22:00,42.0,31.0,29.78,WSW,254,14.0,29.0,64,0.00,,,0.00,,2013-03-15 20:22:00,
2013-03-15 16:32:00,42.0,30.0,29.78,WSW,247,13.0,22.0,63,0.00,,,0.00,,2013-03-15 20:32:00,
2013-03-15 16:42:00,42.0,30.0,29.78,WSW,247,13.0,22.0,63,0.00,,,0.00,,2013-03-15 20:42:00,
2013-03-15 16:52:00,42.0,30.0,29.78,WSW,237,15.0,23.0,62,0.00,,,0.00,,2013-03-15 20:52:00,
2013-03-15 17:02:00,43.0,31.0,29.78,WSW,242,13.0,19.0,62,0.00,,,0.00,,2013-03-15 21:02:00,
2013-03-15 17:12:00,43.0,31.0,29.78,WSW,242,13.0,19.0,62,0.00,,,0.00,,2013-03-15 21:12:00,
2013-03-15 17:22:00,43.0,31.0,29.78,WSW,241,12.0,28.0,62,0.00,,,0.00,,2013-03-15 21:22:00,
2013-03-15 17:33:00,43.0,31.0,29.77,WSW,246,11.0,23.0,62,0.00,,,0.00,,2013-03-15 21:33:00,
2013-03-15 17:43:00,43.0,31.0,29.77,WSW,246,11.0,23.0,62,0.00,,,0.00,,2013-03-15 21:43:00,
2013-03-15 17:53:00,43.0,30.0,29.78,WSW,244,11.0,19.0,61,0.00,,,0.00,,2013-03-15 21:53:00,
2013-03-15 18:03:00,43.0,30.0,29.77,WSW,238,13.0,19.0,61,0.00,,,0.00,,2013-03-15 22:03:00,
2013-03-15 18:14:00,43.0,30.0,29.77,WSW,238,13.0,19.0,61,0.00,,,0.00,,2013-03-15 22:14:00,
2013-03-15 18:22:00,43.0,30.0,29.77,WSW,254,8.0,17.0,61,0.00,,,0.00,,2013-03-15 22:22:00,
2013-03-15 18:32:00,43.0,30.0,29.77,WSW,254,8.0,17.0,61,0.00,,,0.00,,2013-03-15 22:32:00,
2013-03-15 18:42:00,43.0,30.0,29.77,WSW,254,8.0,17.0,61,0.00,,,0.00,,2013-03-15 22:42:00,
2013-03-15 18:53:00,43.0,30.0,29.77,WSW,254,8.0,17.0,61,0.00,,,0.00,,2013-03-15 22:53:00,
2013-03-15 19:02:00,42.0,30.0,29.77,WSW,254,6.0,13.0,63,0.00,,,0.00,,2013-03-15 23:02:00,
2013-03-15 19:12:00,42.0,30.0,29.77,WSW,254,6.0,13.0,63,0.00,,,0.00,,2013-03-15 23:12:00,
2013-03-15 19:22:00,42.0,31.0,29.77,West,260,5.0,11.0,64,0.00,,,0.00,,2013-03-15 23:22:00,
2013-03-15 19:32:00,42.0,31.0,29.78,WSW,257,6.0,14.0,64,0.00,,,0.00,,2013-03-15 23:32:00,
2013-03-15 19:42:00,42.0,31.0,29.78,WSW,257,6.0,14.0,64,0.00,,,0.00,,2013-03-15 23:42:00,
2013-03-15 19:53:00,42.0,31.0,29.78,WSW,253,5.0,13.0,64,0.00,,,0.00,,2013-03-15 23:53:00,
2013-03-15 20:03:00,42.0,31.0,29.79,WSW,250,6.0,13.0,65,0.00,,,0.00,,2013-03-16 00:03:00,
2013-03-15 20:12:00,42.0,31.0,29.79,WSW,250,6.0,13.0,65,0.00,,,0.00,,2013-03-16 00:12:00,
2013-03-15 20:22:00,41.0,31.0,29.79,WSW,247,7.0,12.0,66,0.00,,,0.00,,2013-03-16 00:22:00,
2013-03-15 20:32:00,41.0,31.0,29.79,WSW,247,7.0,12.0,66,0.00,,,0.00,,2013-03-16 00:32:00,
2013-03-15 20:42:00,41.0,31.0,29.79,WSW,247,7.0,12.0,66,0.00,,,0.00,,2013-03-16 00:42:00,
2013-03-15 20:52:00,42.0,31.0,29.79,WSW,244,7.0,14.0,66,0.00,,,0.00,,2013-03-16 00:52:00,
2013-03-15 21:03:00,41.0,31.0,29.79,WSW,244,5.0,11.0,66,0.00,,,0.00,,2013-03-16 01:03:00,
2013-03-15 21:12:00,41.0,31.0,29.79,WSW,244,5.0,11.0,66,0.00,,,0.00,,2013-03-16 01:12:00,
2013-03-15 21:22:00,41.0,31.0,29.79,WSW,244,5.0,11.0,66,0.00,,,0.00,,2013-03-16 01:22:00,
2013-03-15 21:32:00,40.0,31.0,29.79,WSW,237,1.0,6.0,69,0.00,,,0.00,,2013-03-16 01:32:00,
2013-03-15 21:42:00,40.0,31.0,29.79,WSW,237,1.0,6.0,69,0.00,,,0.00,,2013-03-16 01:42:00,
2013-03-15 21:53:00,40.0,31.0,29.79,WSW,237,1.0,6.0,69,0.00,,,0.00,,2013-03-16 01:53:00,
2013-03-15 22:02:00,40.0,31.0,29.79,SW,229,1.0,7.0,69,0.00,,,0.00,,2013-03-16 02:02:00,
2013-03-15 22:12:00,40.0,31.0,29.79,SW,229,1.0,7.0,69,0.00,,,0.00,,2013-03-16 02:12:00,
2013-03-15 22:23:00,41.0,32.0,29.79,WSW,243,6.0,9.0,69,0.00,,,0.00,,2013-03-16 02:23:00,
2013-03-15 22:33:00,41.0,31.0,29.78,WSW,249,7.0,14.0,68,0.00,,,0.00,,2013-03-16 02:33:00,
2013-03-15 22:42:00,41.0,31.0,29.78,WSW,249,7.0,14.0,68,0.00,,,0.00,,2013-03-16 02:42:00,
2013-03-15 22:52:00,41.0,31.0,29.78,WSW,249,7.0,14.0,68,0.00,,,0.00,,2013-03-16 02:52:00,
2013-03-15 23:02:00,41.0,31.0,29.81,WSW,255,6.0,14.0,68,0.00,,,0.00,,2013-03-16 03:02:00,
2013-03-15 23:12:00,41.0,31.0,29.81,WSW,255,6.0,14.0,68,0.00,,,0.00,,2013-03-16 03:12:00,
2013-03-15 23:22:00,41.0,31.0,29.81,WSW,251,6.0,16.0,68,0.00,,,0.00,,2013-03-16 03:22:00,
2013-03-15 23:33:00,41.0,32.0,29.81,WSW,257,6.0,11.0,70,0.00,,,0.00,,2013-03-16 03:33:00,
2013-03-15 23:43:00,41.0,32.0,29.81,WSW,257,6.0,11.0,70,0.00,,,0.00,,2013-03-16 03:43:00,
2013-03-15 23:53:00,41.0,33.0,29.80,WSW,257,5.0,16.0,73,0.00,,,0.00,,2013-03-16 03:53:00,